USA 56

Satellite information

Favourite Embed

Satellite Type and Status

PAYLOADIN ORBIT

Key statistics

Satellite USA 56 at a glance.

Uptime

12981

Days in orbit

Revolutions

≈ 14.8

Per day

Orbit

LEO

Low Earth Orbit

Inclination

89.9

Latest

Satellite identification and parameters

Extended collection of information and parameters for USA 56.

Object identification

Identified? True

Debris? False

Object name: USA 56

International designator: 1990-031A

Object number (NORAD): 20560

Object ID (CCSDS): 20560

Country: UNITED STATES OF AMERICA (US)

Current information (Y/N): Y

RCS size: MEDIUM

Orbital parameters

Period: 97.489 minutes

Inclination: 89.8514 deg

SMA: 7016.659 km

Apoapsis: 682.724 km

Periapsis: 594.323 km

RAAN: 265.253 deg

Eccentricy: 0.00629942

Argument of periapsis: 29.1618 deg

Mean anomaly: 331.3097 deg

Mean motion: 14.77090969 rev/day

Mean motion (dot): 0.00002131 rev/day2

B* drag term: 0.00028980552 1/REarth

Two-line elements (TLE)

Creation date: Oct. 25, 2025, 3:11 a.m.

Reference frame: TEME

Reference center: EARTH

Epoch: Oct. 24, 2025, 10:07 p.m. UTC

TLE line 0: 0 USA 56

TLE line 1: 1 20560U 90031A 25297.92216470 .00002131 00000-0 28981-3 0 9990

TLE line 2: 2 20560 89.8514 265.2530 0062994 29.1618 331.3097 14.77090969 77967

Live tracking on map

Real-time ground track for satellite USA 56.

In-orbit conjunctions

There are no conjunctions computed for USA 56, at the moment. Check back to stay up to date, as we update our databases every day.

Go to all conjunctions

Associated space launch

POGS & SSR was a satellite designed to measure the Earth's magnetic field. TEX and SCE studied ionospheric effects on RF transmissions.

USA 56 was lifted into orbit during the mission ‘Atlas E Altair | POGS & SSR, TEX, SCE’, on board a Atlas E Altair space rocket.

The launch took place on April 11, 1990, 3 p.m. from Space Launch Complex 3W.

For more information about the launch, click the button.

Launch to space Atlas E Altair | POGS & SSR, TEX, SCE
Atlas E Altair | POGS & SSR, TEX, SCE

Agency: N/A

Status: Launch Successful

Launch date: April 11, 1990, 3 p.m. UTC

Rocket: Atlas E Altair

Launch pad: Space Launch Complex 3W

Location: Vandenberg SFB, CA, USA

...

Latest news about this satellite

There are no fresh news available about this satellite. Check back as we update our databases every day.


Newsletter sign-up

Weekly statistics, charts and insights to help you stay on top of the space industry.